Regional Weather Roundup
Issued by NWS

Home | Current Version | Previous Version | Graphics & Text | Print | Product List | Glossary On
Versions: 1 2 3 4 5 6 7 8 9 10 11 12 13 14 15 16 17 18 19 20 21 22 23 24 25 26 27 28 29 30 31 32 33 34 35 36 37 38 39 40 41 42 43 44 45 46 47 48 49 50
000
ASUS43 KLOT 300408
RWRIL

ILLINOIS REGIONAL WEATHER ROUNDUP
NATIONAL WEATHER SERVICE CHICAGO/ROMEOVILLE IL
1100 PM CDT SUN MAR 29 2015

NOTE: "FAIR" INDICATES FEW OR NO CLOUDS BELOW 12,000 FEET WITH NO
SIGNIFICANT WEATHER AND/OR OBSTRUCTIONS TO VISIBILITY.

* THESE STATIONS ARE NOT UNDER NWS QUALITY CONTROL. THEY ALSO MAY NOT
  REPORT WEATHER SUCH AS PRECIPITATION OR FOG.

ILZ001-002-007-009-015-016-024-300500-
NORTHWEST ILLINOIS

CITY           SKY/WX    TMP DP  RH WIND       PRES   REMARKS
MOLINE         CLEAR     43  28  55 W8        30.01R
STERLING*      CLEAR     41  30  65 NW10      29.97R
SAVANNA*       CLEAR     46  30  54 W9        29.97R
$$

ILZ003-004-008-010-011-017-018-300500-
NORTH CENTRAL ILLINOIS

CITY           SKY/WX    TMP DP  RH WIND       PRES   REMARKS
ROCKFORD       CLEAR     42  31  64 W13       29.93R
FREEPORT*      CLEAR     41  31  66 W14G20    29.96R
ROCHELLE*      CLEAR     38  32  79 W12       29.94R WCI  30
DE KALB*       CLEAR     38  32  77 W14       29.93R WCI  30
PERU*          CLEAR     37  33  86 W7        29.98R WCI  31
$$

ILZ005-006-012>014-019>023-300500-
NORTHEAST ILLINOIS

CITY           SKY/WX    TMP DP  RH WIND       PRES   REMARKS
CHICAGO-OHARE  MOCLDY    41  33  73 W6        29.91R
CHICAGO-MIDWAY MOCLDY    44  34  67 W5        29.93R
AURORA         CLEAR     37  30  75 SW6       29.93R WCI  32
LANSING*       PTCLDY    43  32  66 W5        29.93S
JOLIET*        PTCLDY    42  33  72 W3        29.94R
WAUKEGAN       CLEAR     40  34  79 W5        29.90R
DUPAGE AIRPORT PTCLDY    40  32  73 W8        29.91R
KANKAKEE*      PTCLDY    40  32  74 W5        29.96R
WHEELING       CLOUDY    43  34  70 W7        29.93R
MORRIS*        CLEAR     35  31  86 W10       29.94R WCI  27
ROMEOVILLE*    MOCLDY    40  32  73 W10       29.93R
NORTHERLY ISL    N/A     44  34  67 W7          N/A
$$

LMZ740>746-300500-
SOUTHERN LAKE MICHIGAN

STATION/POSITION SKY/WX   TEMP    WIND        PRES    VSBY  WAVE
                          AIR SEA DIR/SP/G                  HT/PER
                          (F)     (DEG/KT/KT) (MB)    (MI)  (FT/S)
HARRISON CRIB              45     280/ 14/ 15   N/A
BURNHAM HARBOR             44     280/  6/ 15   N/A
CALUMET HARBOR             45     260/  8/ 14 1011.7R
BURNS HARBOR               42     280/ 11/ 14 1013.2R
MICHIGAN CITY              39     260/ 13/ 14   N/A
$$

ILZ025>027-034>036-040-047-049-050-058-095>099-300500-
WEST-CENTRAL ILLINOIS

CITY           SKY/WX    TMP DP  RH WIND       PRES   REMARKS
QUINCY         CLEAR     47  36  65 W7        30.07R
GALESBURG*     CLEAR     40  32  74 W8        30.02R
MACOMB*        CLEAR     41  32  71 NW12      30.06R
JACKSONVILLE*  CLEAR     41  36  81 W10       30.05R
PITTSFIELD*    CLEAR     49  38  65 W6        30.07R
$$

ILZ028>032-037-038-041>044-048-051>054-059>061-300500-
CENTRAL ILLINOIS

CITY           SKY/WX    TMP DP  RH WIND       PRES   REMARKS
PONTIAC        CLEAR     40  37  91 CALM      29.98S
BLOOMINGTON    CLEAR     44  38  79 NW12      30.00R
DECATUR        CLEAR     51  40  65 W10       30.01R
PEORIA         CLEAR     46  35  65 W7        30.02R
LACON*         CLEAR     42  33  70 W3        29.99R
LINCOLN*       CLEAR     50  39  67 W6        30.01R
SPRINGFIELD    CLEAR     43  37  79 W9        30.03R
TAYLORVILLE    CLEAR     45  37  76 W10       30.03R
$$

ILZ033-039-045-046-055>057-062-063-300500-
EAST-CENTRAL ILLINOIS

CITY           SKY/WX    TMP DP  RH WIND       PRES   REMARKS
CHAMPAIGN      CLEAR     42  37  82 W9        29.99R
DANVILLE*      MOCLDY    46  40  79 NW16      29.96R
RANTOUL*       CLEAR     44  40  85 NW10      29.99R
MATTOON        PTCLDY    47  40  76 SW10      30.00R
PARIS*         MOCLDY    46  42  85 W13G20    30.00R
$$

ILZ079-100>102-300500-
SOUTHWEST ILLINOIS

CITY           SKY/WX    TMP DP  RH WIND       PRES   REMARKS
ALTON          PTCLDY    49  39  68 W10       30.07R
BELLEVILLE     PTCLDY    46  42  85 VRB1      30.06R
CAHOKIA*       PTCLDY    44  39  82 SW5       30.07R
SPARTA*        MOCLDY    50  41  72 SW3       30.09R
$$

ILZ064>066-069>071-074>076-080>082-084>086-088>090-092>094-300500-
SOUTH-CENTRAL ILLINOIS

CITY           SKY/WX    TMP DP  RH WIND       PRES   REMARKS
CARBONDALE     CLOUDY    53  44  71 SW7       30.08R
CAIRO*         CLOUDY    53  48  84 SW5       30.11R
EFFINGHAM*     MOCLDY    47  39  74 SW8       30.05R
MARION         CLOUDY    54  45  71 SW3       30.09R
MT. VERNON     CLOUDY    48  41  76 SW6       30.08R
CENTRALIA*     CLOUDY    49  41  73 SW7       30.06R
SALEM*         CLOUDY    50  43  77 SW7       30.06R
METROPOLIS*    CLOUDY    55  49  79 W6        30.09R
$$

ILZ067-068-072-073-078-083-087-091-300500-
SOUTHEAST ILLINOIS

CITY           SKY/WX    TMP DP  RH WIND       PRES   REMARKS
LAWRENCEVILLE  CLOUDY    50  43  77 SW12      30.04R
FLORA*         CLOUDY    50  42  74 SW10      30.06R
FAIRFIELD*     CLOUDY    50  44  79 SW8       30.06R
HARRISBURG*    MOCLDY    53  45  73 SW8       30.09R
ROBINSON*      CLOUDY    48  42  81 SW14      30.03R
CARMI*         MOCLDY    51  42  71 SW9       30.06R
$$

ABBREVIATIONS USED IN REMARKS
   TC - TEMPERATURE IN CELSIUS
  WCI - WIND CHILL INDEX
   HX - HEAT INDEX
  VSB - VISIBILITY
$$



USA.gov is the U.S. government's official web portal to all federal, state and local government web resources and services.